Location: Hohe Wand Kleine Kanzel
(47.8330°N, 16.0170°E)
Time: 16:30:06
(UTC+02:00)

Vanguard 3 - Pass Details

Date: 03 August 2021
Orbit: 510 x 3260 km, 33.4° (Epoch: 23 September)

Event Time Altitude Azimuth Distance (km) Brightness Sun altitude
Rises 21:57:56 0° 267° (W) 6,365 12.4 -13.0°
Reaches altitude 10° 22:02:03 10° 261° (W) 5,628 11.9 -13.5°
Maximum altitude 22:18:39 44° 198° (SSW) 4,030 10.4 -15.3°
Enters shadow 22:31:50 20° 142° (SE) 5,160 10.5 -16.7°
